Regional Weather Roundup
Issued by NWS

Home | Current Version | Previous Version | Text Only | Print | Product List | Glossary On
Versions: 1 2 3 4 5 6 7 8 9 10 11 12 13 14 15 16 17 18 19 20 21 22 23 24 25 26 27 28 29 30 31 32 33 34 35 36 37 38 39 40 41 42 43 44 45 46 47 48 49 50
000
ASUS43 KMPX 272001
RWRMN
WEATHER ROUNDUP FOR MINNESOTA
NATIONAL WEATHER SERVICE TWIN CITIES/CHANHASSEN MN
200 PM CST TUE JAN 27 2015


NOTE: "FAIR" INDICATES FEW OR NO CLOUDS BELOW 12,000 FEET WITH NO
SIGNIFICANT WEATHER AND/OR OBSTRUCTIONS TO VISIBILITY. N/A MEANS
CURRENT SKY AND/OR WEATHER CONDITIONS ARE NOT AVAILABLE.

MNZ060>063-068>070-272100-
   Twin Cities Metro

CITY           SKY/WX    TMP DP  RH WIND       PRES   REMARKS
TWIN CITIES    CLOUDY    33  24  69 S6        30.17S WCI  28
ST PAUL        CLOUDY    33  25  72 SE6       30.18F WCI  28
CRYSTAL        CLOUDY    34  25  69 SE7       30.15S WCI  28
BLAINE         CLOUDY    36  27  69 S3        30.16F
LAKEVILLE      CLOUDY    32  27  80 SE3       30.16S
EDEN PRAIRIE   CLOUDY    34  26  72 SE8       30.15S WCI  27
SOUTH ST PAUL  CLOUDY    33  25  72 CALM      30.17R
LAKE ELMO      CLOUDY    32  27  80 SE5       30.17S WCI  27
$$
MNZ001>005-007-008-013>017-022>024-027-028-272100-
   Northwest Minnesota

CITY           SKY/WX    TMP DP  RH WIND       PRES   REMARKS
BEMIDJI        PTSUNNY   32  27  80 SE9       30.02F WCI  24
HALLOCK        CLOUDY    30  28  93 S14       29.96F WCI  20
ROSEAU         CLOUDY    28  25  86 S7        30.00S WCI  21
WARROAD        CLOUDY    28  25  86 SE7       30.01F WCI  21
THIEF RVR FALL PTSUNNY   30  30 100 S12       29.99F WCI  21
CROOKSTON      CLOUDY    32  30  93 S15       30.01F WCI  22
FOSSTON        PTSUNNY   36  28  75 SE9       30.00F
DETROIT LAKES  CLOUDY    32  32 100 SE16      30.02F WCI  21
MOORHEAD       CLOUDY    30  30 100 SE18G25   30.03F WCI  18
PARK RAPIDS    CLOUDY    32  27  81 S12       30.04F WCI  23
MAHNOMEN       FAIR      33  28  84 S9        30.00F WCI  25
$$
MNZ006-009>011-018-025>026-272100-
   North Central Minnesota

CITY           SKY/WX    TMP DP  RH WIND       PRES   REMARKS
BAUDETTE       CLOUDY    30  24  78 S8        30.01F WCI  22
FLAG ISLAND    CLOUDY    25  25 100 S13       30.01F WCI  13
INTL FALLS     PTSUNNY   30  23  75 S6        30.05F WCI  24
WASKISH        CLOUDY    34  27  75 SE6       30.04R WCI  29
BIG FORK       PTSUNNY   30  23  74 S8        30.06F WCI  23
LONGVILLE      MOSUNNY   32  25  74 S9        30.07F WCI  24
GRAND RAPIDS   PTSUNNY   30  25  80 S10       30.07F WCI  21
CRANE LAKE     CLOUDY    25  21  86 S7        30.11F WCI  17
ORR            CLOUDY    27  21  80 SE7       30.05F WCI  19
COOK           CLOUDY    27  25  93 SE8       30.09F WCI  18
WALKER         FAIR      32  25  77 S8        30.05F WCI  25
$$
MNZ012-019>021-037-272100-
   Northeast Minnesota

CITY           SKY/WX    TMP DP  RH WIND       PRES   REMARKS
DULUTH         CLOUDY    28  21  75 S8        30.11F WCI  20
ELY            CLOUDY    27  21  80 SW7       30.10S WCI  19
HIBBING        CLOUDY    29  22  75 S7        30.09F WCI  22
EVELETH        CLOUDY    28  25  86 SW5       30.11F WCI  23
DULUTH HARBOR  CLOUDY    30  25  80 CALM      30.17F
TWO HARBORS    CLOUDY    30  25  80 S6        30.12F WCI  24
SILVER BAY     CLOUDY    30  25  80 S6        30.11F WCI  24
GRAND MARAIS     N/A     30  22  72 SW5       30.17F WCI  25
G MARAIS ARPRT   N/A     25  18  74 S7        30.10F WCI  17
$$
MNZ029>031-032-039>041-046>048-054>057-064-272100-
   West Central Minnesota

CITY           SKY/WX    TMP DP  RH WIND       PRES   REMARKS
FERGUS FALLS   CLOUDY    30  30 100 SE15      30.07F WCI  19
WHEATON        CLOUDY    28  28 100 SE17      30.06F FOG     WCI  16
MORRIS         CLOUDY    30  30 100 SE18      30.05F FOG     WCI  18
ALEXANDRIA     CLOUDY    31  28  89 SE14      30.07F WCI  21
ELBOW LAKE     CLOUDY    31  30  95 SE13      30.05F WCI  21
WADENA         CLOUDY    30  27  86 SE12      30.06  WCI  21
GLENWOOD       CLOUDY    32  28  86 SE10      30.08F WCI  24
APPLETON       CLOUDY    32  30  93 SE9       30.07F WCI  24
BENSON         CLOUDY    32  28  86 S12G17    30.08F WCI  23
ORTONVILLE     CLOUDY    30  28  93 SE12      30.04F FOG     WCI  21
MADISON        CLOUDY    36  34  93 SE12      30.07F FOG
WILLMAR        CLOUDY    34  28  80 SE12      30.11F WCI  25
$$
MNZ033>034-036-042>043-049>051-058-059-272100-
   Central Minnesota

CITY           SKY/WX    TMP DP  RH WIND       PRES   REMARKS
ST CLOUD       CLOUDY    33  26  75 S8        30.12F WCI  26
SAUK CENTRE    CLOUDY    31  28  90 S9        30.10F WCI  23
PAYNESVILLE    CLOUDY    30  27  88 E10       30.11F WCI  21
AITKIN         PTSUNNY   37  27  65 S9        30.08F
PINE RIVER     CLOUDY    30  27  86 S8        30.11F WCI  23
BRAINERD       CLOUDY    32  26  78 SE8       30.10F WCI  25
STAPLES        CLOUDY    30  27  86 S8        30.08F WCI  23
LONG PRAIRIE   CLOUDY    32  28  86 SE8       30.10S WCI  25
LITTLE FALLS   CLOUDY    32  27  80 S9        30.11F WCI  24
LITCHFIELD     CLOUDY    36  30  80 SE10      30.12F
BUFFALO        CLOUDY    35  27  73 SE7       30.14F WCI  29
MAPLE LAKE     CLOUDY    35  29  78 SE5       30.14F WCI  31
$$
MNZ037-044-045-052-053-272100-
   East Central Minnesota

CITY           SKY/WX    TMP DP  RH WIND       PRES   REMARKS
PRINCETON      CLOUDY    36  27  69 SE6       30.14F
MORA           CLOUDY    32  23  69 SE6       30.16F WCI  26
CAMBRIDGE      CLOUDY    34  23  64 SE6       30.13F WCI  29
RUSH CITY      CLOUDY    31  24  74 S6        30.16F WCI  26
MOOSE LAKE     CLOUDY    30  25  80 S3        30.12F
HINCKLEY       CLOUDY    32  27  80 S5        30.15S WCI  27
CLOQUET        CLOUDY    28  21  74 SE5       30.11F WCI  23
MCGREGOR       CLOUDY    32  27  80 S8        30.10F WCI  25
$$
MNZ071>073-080-081-089-090-097-098-272100-
   Southwest Minnesota

CITY           SKY/WX    TMP DP  RH WIND       PRES   REMARKS
MONTEVIDEO     CLOUDY    32  32 100 S15       30.09F WCI  22
GRANITE FALLS  CLOUDY    32  30  93 SE10      30.10F WCI  24
CANBY          CLOUDY    35  33  95 SE10      30.06F WCI  27
MARSHALL       CLOUDY    34  28  80 S12       30.09S WCI  25
REDWOOD FALLS  CLOUDY    34  30  85 SE13      30.11F WCI  25
OLIVIA         CLOUDY    32  32 100 SE12      30.11S WCI  23
PIPESTONE      CLOUDY    30  30 100 S9        30.04S FOG     WCI  22
WINDOM         MOSUNNY   37  34  87 SE12      30.09R
WORTHINGTON    MOSUNNY   37  30  75 S12       30.07S
JACKSON        MOSUNNY   37  32  81 SE9       30.09S
TRACY          MOSUNNY   35  35  99 S6        30.08S WCI  30
SLAYTON        CLOUDY    33  32  98 S5        30.06S WCI  28
$$
MNZ065>067-074>077-082>085-091>093-272100-
   South Central Minnesota

CITY           SKY/WX    TMP DP  RH WIND       PRES   REMARKS
MANKATO        CLOUDY    36  27  69 S10       30.14F
NEW ULM        CLOUDY    36  28  75 SE9       30.12F
ST JAMES       CLOUDY    37  32  81 SE8       30.14R
FAIRMONT       CLOUDY    36  27  69 SE10      30.12R
GLENCOE        CLOUDY    37  31  79 SE8       30.12F
FARIBAULT      CLOUDY    34  27  75 SE5       30.16S WCI  30
OWATONNA       CLOUDY    34  27  75 SE6       30.15S WCI  29
WASECA         CLOUDY    34  30  86 E7        30.16S WCI  28
ALBERT LEA     CLOUDY    34  28  80 SE6       30.14S WCI  29
$$
MNZ078>079-086>088-094>096-272100-
   Southeast Minnesota

CITY           SKY/WX    TMP DP  RH WIND       PRES   REMARKS
ROCHESTER      CLOUDY    30  25  81 SE8       30.16S WCI  22
RED WING       CLOUDY    32  25  74 SE6       30.17F WCI  26
STANTON        CLOUDY    34  26  74 SE5       30.15S WCI  30
DODGE CENTER   CLOUDY    32  28  86 E7        30.15S WCI  26
WINONA         CLOUDY    32  23  69 E5        30.21F WCI  27
AUSTIN         CLOUDY    32  27  80 SE3       30.15S
PRESTON        CLOUDY    28  23  81 E5        30.16S WCI  23
$$
ABBREVIATIONS USED IN REMARKS
   TC - TEMPERATURES IN CELSIUS
  WCI - WIND CHILL INDEX
   HX - HEAT INDEX
  VSB - VISIBILITY
$$


USA.gov is the U.S. government's official web portal to all federal, state and local government web resources and services.